Location: �clusier
(49.9361°N, 2.7869°E)
Time: 06:19:34
(UTC+00:00)

Cosmos 2016 Rocket - Pass Details

Date: 01 November 2021
Orbit: 947 x 1000 km, 83.0° (Epoch: 05 December)

Event Time Altitude Azimuth Distance (km) Brightness Sun altitude
Rises 05:25:49 0° 352° (N) 3,631 6.8 -12.1°
Reaches altitude 10° 05:28:21 10° 355° (N) 2,683 6.2 -11.7°
Maximum altitude 05:34:26 64° 77° (ENE) 1,052 4.5 -10.7°
Drops below altitude 10° 05:40:31 10° 159° (SSE) 2,687 6.8 -9.8°
Sets 05:43:03 0° 162° (SSE) 3,637 7.4 -9.4°
